Location: Newark
(17.1333°N, 61.8333°W)
Time: 15:25:08
(UTC+00:00)

N. Korean satellite - Visible Passes

Search period start: 21 July 2019 00:00
Search period end: 31 July 2019 00:00
Orbit: 456 x 508 km, 97.2° (Epoch: 21 July)

Date Brightness Start Highest point End Pass type
(mag) Time Alt. Az. Time Alt. Az. Time Alt. Az.
21 Jul 10.0 08:59:41 10° E 09:00:32 11° E 09:01:24 10° ESE visible
24 Jul 9.5 09:15:50 10° NE 09:18:38 20° E 09:21:25 10° SSE visible
28 Jul 9.6 09:09:13 10° ENE 09:11:33 16° E 09:13:53 10° SE visible
